| time (UTC) | temp F | wind direction | speed knots | gust knots | rain 1hr in | rain 24hr in | rain mn in | humidity % | barometer mb |
| 20260507051546 | 51 | 91 | 0.0 | 2.6 | 0.00 | 0.00 | 0.00 | 84 | 1021.9 |
| 20260507051035 | 51 | 0 | 0.0 | 2.6 | 0.00 | 0.00 | 0.00 | 84 | 1022.0 |
| 20260507050535 | 51 | 58 | 0.0 | 2.6 | 0.00 | 0.00 | 0.00 | 84 | 1022.0 |
| 20260507050048 | 52 | 0 | 0.0 | 1.7 | 0.00 | 0.00 | 0.00 | 84 | 1022.0 |
| 20260507045535 | 52 | 0 | 0.0 | 1.7 | 0.00 | 0.00 | 0.00 | 84 | 1022.0 |
| 20260507045035 | 52 | 75 | 0.0 | 5.2 | 0.00 | 0.00 | 0.00 | 84 | 1022.0 |
| 20260507044548 | 52 | 0 | 0.0 | 5.2 | 0.00 | 0.00 | 0.00 | 84 | 1022.0 |
| 20260507044035 | 52 | 0 | 0.0 | 5.2 | 0.00 | 0.00 | 0.00 | 84 | 1022.0 |
| 20260507043535 | 52 | 0 | 0.0 | 4.3 | 0.00 | 0.00 | 0.00 | 84 | 1022.0 |
| 20260507043041 | 52 | 44 | 0.0 | 1.7 | 0.00 | 0.00 | 0.00 | 84 | 1022.0 |
| 20260507042534 | 52 | 91 | 0.0 | 1.7 | 0.00 | 0.00 | 0.00 | 84 | 1021.9 |
| 20260507042034 | 53 | 0 | 0.0 | 0.9 | 0.00 | 0.00 | 0.00 | 84 | 1021.9 |
| 20260507041550 | 53 | 0 | 0.0 | 3.5 | 0.00 | 0.00 | 0.00 | 84 | 1021.8 |
| 20260507041034 | 53 | 0 | 0.0 | 3.5 | 0.00 | 0.00 | 0.00 | 84 | 1021.8 |
| 20260507040535 | 53 | 0 | 0.0 | 4.3 | 0.00 | 0.00 | 0.00 | 84 | 1021.8 |
| 20260507040051 | 53 | 0 | 0.0 | 4.3 | 0.00 | 0.00 | 0.00 | 84 | 1021.8 |
| 20260507035534 | 53 | 73 | 0.0 | 4.3 | 0.00 | 0.00 | 0.00 | 84 | 1021.8 |
| 20260507035034 | 53 | 0 | 0.0 | 1.7 | 0.00 | 0.00 | 0.00 | 83 | 1021.7 |
| 20260507034554 | 53 | 0 | 0.0 | 5.2 | 0.00 | 0.00 | 0.00 | 83 | 1021.7 |
| 20260507034036 | 53 | 0 | 0.9 | 5.2 | 0.00 | 0.00 | 0.00 | 83 | 1021.7 |
| 20260507033535 | 53 | 0 | 0.9 | 5.2 | 0.00 | 0.00 | 0.00 | 83 | 1021.6 |
| 20260507033049 | 53 | 0 | 0.0 | 5.2 | 0.00 | 0.00 | 0.00 | 83 | 1021.5 |
| 20260507032535 | 53 | 56 | 1.7 | 6.1 | 0.00 | 0.00 | 0.00 | 83 | 1021.4 |
| 20260507032034 | 53 | 0 | 0.9 | 6.1 | 0.00 | 0.00 | 0.00 | 83 | 1021.4 |
| 20260507031541 | 53 | 37 | 0.9 | 6.1 | 0.00 | 0.00 | 0.00 | 82 | 1021.3 |
| 20260507031035 | 53 | 76 | 0.0 | 5.2 | 0.00 | 0.00 | 0.00 | 83 | 1021.2 |
| 20260507030536 | 54 | 63 | 0.0 | 4.3 | 0.00 | 0.00 | 0.00 | 82 | 1021.2 |
| 20260507030045 | 54 | 70 | 0.9 | 6.1 | 0.00 | 0.00 | 0.00 | 82 | 1021.1 |
| 20260507025534 | 54 | 26 | 0.9 | 6.1 | 0.00 | 0.00 | 0.00 | 82 | 1021.0 |
| 20260507025034 | 54 | 60 | 0.9 | 4.3 | 0.00 | 0.00 | 0.00 | 82 | 1021.0 |
| 20260507024556 | 55 | 57 | 0.9 | 4.3 | 0.00 | 0.00 | 0.00 | 82 | 1020.9 |
| 20260507024035 | 55 | 60 | 0.9 | 4.3 | 0.00 | 0.00 | 0.00 | 82 | 1020.9 |
| 20260507023535 | 55 | 49 | 0.0 | 3.5 | 0.00 | 0.00 | 0.00 | 82 | 1020.9 |
| 20260507023047 | 55 | 80 | 0.9 | 3.5 | 0.00 | 0.00 | 0.00 | 82 | 1020.8 |
| 20260507022535 | 55 | 62 | 0.9 | 4.3 | 0.00 | 0.00 | 0.00 | 81 | 1020.9 |
| 20260507022034 | 56 | 0 | 0.9 | 4.3 | 0.00 | 0.00 | 0.00 | 81 | 1020.9 |
| 20260507021557 | 56 | 40 | 0.9 | 3.5 | 0.00 | 0.00 | 0.00 | 80 | 1020.8 |
| 20260507021036 | 57 | 51 | 0.0 | 2.6 | 0.00 | 0.00 | 0.00 | 80 | 1020.8 |
| 20260507020535 | 57 | 0 | 0.0 | 2.6 | 0.00 | 0.00 | 0.00 | 80 | 1020.8 |
| 20260507020051 | 57 | 0 | 0.0 | 2.6 | 0.00 | 0.00 | 0.00 | 80 | 1020.8 |
| 20260507015534 | 57 | 86 | 0.0 | 4.3 | 0.00 | 0.00 | 0.00 | 80 | 1020.9 |
| 20260507015035 | 57 | 0 | 0.0 | 5.2 | 0.00 | 0.00 | 0.00 | 80 | 1020.9 |
| 20260507014545 | 57 | 0 | 0.0 | 5.2 | 0.00 | 0.00 | 0.00 | 80 | 1020.9 |
| 20260507014035 | 57 | 108 | 0.9 | 3.5 | 0.00 | 0.00 | 0.00 | 79 | 1021.0 |
| 20260507013534 | 57 | 55 | 0.0 | 5.2 | 0.00 | 0.00 | 0.00 | 79 | 1021.0 |
| 20260507013049 | 58 | 0 | 0.0 | 5.2 | 0.00 | 0.00 | 0.00 | 78 | 1021.0 |
| 20260507012536 | 58 | 0 | 0.9 | 5.2 | 0.00 | 0.00 | 0.00 | 78 | 1021.0 |
| 20260507012037 | 58 | 0 | 0.9 | 6.1 | 0.00 | 0.00 | 0.00 | 78 | 1021.1 |
| 20260507011548 | 58 | 78 | 0.9 | 7.8 | 0.00 | 0.00 | 0.00 | 77 | 1021.1 |
| 20260507011035 | 59 | 0 | 0.0 | 7.8 | 0.00 | 0.00 | 0.00 | 77 | 1021.1 |
| 20260507010536 | 59 | 0 | 0.9 | 7.8 | 0.00 | 0.00 | 0.00 | 77 | 1021.1 |
| 20260507010059 | 59 | 6 | 0.0 | 8.7 | 0.00 | 0.00 | 0.00 | 75 | 1021.1 |
| 20260507005535 | 60 | 65 | 1.7 | 8.7 | 0.00 | 0.00 | 0.00 | 77 | 1021.0 |
| 20260507005036 | 60 | 0 | 0.0 | 5.2 | 0.00 | 0.00 | 0.00 | 77 | 1021.0 |
| 20260507004543 | 60 | 62 | 0.9 | 5.2 | 0.00 | 0.00 | 0.00 | 75 | 1021.0 |
| 20260507004035 | 60 | 0 | 0.0 | 4.3 | 0.00 | 0.00 | 0.00 | 75 | 1021.0 |
| 20260507003535 | 60 | 35 | 0.0 | 2.6 | 0.00 | 0.00 | 0.00 | 75 | 1021.1 |
| 20260507003044 | 60 | 0 | 0.0 | 3.5 | 0.00 | 0.00 | 0.00 | 75 | 1021.1 |
| 20260507002535 | 60 | 0 | 0.0 | 3.5 | 0.00 | 0.00 | 0.00 | 75 | 1020.9 |
| 20260507002034 | 61 | 0 | 0.9 | 5.2 | 0.00 | 0.00 | 0.00 | 75 | 1020.9 |
| 20260507001554 | 61 | 0 | 0.0 | 5.2 | 0.00 | 0.00 | 0.00 | 75 | 1020.9 |
| 20260507001035 | 61 | 45 | 0.9 | 5.2 | 0.00 | 0.00 | 0.00 | 75 | 1020.9 |
| 20260507000535 | 61 | 75 | 0.0 | 5.2 | 0.00 | 0.00 | 0.00 | 75 | 1021.0 |
| 20260507000053 | 61 | 0 | 0.9 | 5.2 | 0.00 | 0.00 | 0.00 | 75 | 1020.9 |
| 20260506235535 | 61 | 0 | 0.0 | 5.2 | 0.00 | 0.00 | 0.00 | 75 | 1020.9 |
| 20260506235034 | 61 | 69 | 0.0 | 7.0 | 0.00 | 0.00 | 0.00 | 76 | 1021.0 |
| 20260506234546 | 61 | 0 | 0.0 | 7.0 | 0.00 | 0.00 | 0.00 | 75 | 1021.0 |
| 20260506234035 | 62 | 73 | 0.0 | 6.1 | 0.00 | 0.00 | 0.00 | 76 | 1020.9 |
| 20260506233537 | 62 | 0 | 0.0 | 6.1 | 0.00 | 0.00 | 0.00 | 76 | 1021.0 |
| 20260506233052 | 62 | 0 | 0.9 | 6.1 | 0.00 | 0.00 | 0.00 | 75 | 1020.9 |
| 20260506232535 | 62 | 0 | 0.0 | 5.2 | 0.00 | 0.00 | 0.00 | 77 | 1020.9 |
| 20260506232034 | 61 | 0 | 0.0 | 5.2 | 0.00 | 0.00 | 0.00 | 77 | 1021.0 |
| 20260506231541 | 62 | 0 | 0.0 | 5.2 | 0.00 | 0.00 | 0.00 | 76 | 1021.0 |
| 20260506231034 | 62 | 79 | 0.0 | 1.7 | 0.00 | 0.00 | 0.00 | 76 | 1021.1 |
| 20260506230535 | 62 | 0 | 0.0 | 1.7 | 0.00 | 0.00 | 0.00 | 78 | 1021.0 |
| 20260506230046 | 62 | 56 | 0.0 | 0.9 | 0.00 | 0.00 | 0.00 | 78 | 1021.0 |
| 20260506225534 | 62 | 0 | 0.0 | 0.9 | 0.00 | 0.00 | 0.00 | 79 | 1020.9 |
| 20260506225037 | 62 | 0 | 0.0 | 0.9 | 0.00 | 0.00 | 0.00 | 77 | 1021.1 |
| 20260506224552 | 62 | 0 | 0.0 | 2.6 | 0.00 | 0.00 | 0.00 | 78 | 1021.1 |
| 20260506224034 | 62 | 0 | 0.0 | 2.6 | 0.00 | 0.00 | 0.00 | 77 | 1021.2 |
| 20260506223534 | 62 | 0 | 0.0 | 2.6 | 0.00 | 0.00 | 0.00 | 77 | 1021.1 |
| 20260506223046 | 62 | 0 | 0.0 | 4.3 | 0.00 | 0.00 | 0.00 | 78 | 1021.2 |
| 20260506222534 | 62 | 0 | 0.0 | 4.3 | 0.00 | 0.00 | 0.00 | 78 | 1021.2 |
| 20260506222037 | 62 | 64 | 0.0 | 1.7 | 0.00 | 0.00 | 0.00 | 77 | 1021.3 |
| 20260506221550 | 62 | 68 | 0.0 | 2.6 | 0.00 | 0.00 | 0.00 | 78 | 1021.4 |
| 20260506221036 | 61 | 0 | 0.0 | 3.5 | 0.00 | 0.00 | 0.00 | 77 | 1021.3 |
| 20260506220537 | 61 | 70 | 0.0 | 3.5 | 0.00 | 0.00 | 0.00 | 77 | 1021.3 |
| 20260506220054 | 62 | 60 | 0.0 | 4.3 | 0.00 | 0.00 | 0.00 | 77 | 1021.3 |
| 20260506215536 | 61 | 0 | 0.0 | 4.3 | 0.00 | 0.00 | 0.00 | 77 | 1021.2 |
| 20260506215039 | 62 | 57 | 0.0 | 3.5 | 0.00 | 0.00 | 0.00 | 75 | 1021.4 |
| 20260506214556 | 62 | 47 | 0.0 | 3.5 | 0.00 | 0.00 | 0.00 | 77 | 1021.3 |
| 20260506214038 | 62 | 0 | 0.0 | 1.7 | 0.00 | 0.00 | 0.00 | 77 | 1021.3 |
| 20260506213536 | 62 | 0 | 0.0 | 2.6 | 0.00 | 0.00 | 0.00 | 77 | 1021.3 |
| 20260506213048 | 62 | 0 | 0.0 | 3.5 | 0.00 | 0.00 | 0.00 | 78 | 1021.3 |
| 20260506212536 | 61 | 0 | 0.0 | 3.5 | 0.00 | 0.00 | 0.00 | 78 | 1021.2 |
| 20260506212037 | 61 | 0 | 0.0 | 3.5 | 0.00 | 0.00 | 0.00 | 78 | 1021.1 |
| 20260506211553 | 60 | 53 | 0.0 | 5.2 | 0.00 | 0.00 | 0.00 | 79 | 1021.3 |
| 20260506211037 | 60 | 0 | 0.9 | 5.2 | 0.00 | 0.00 | 0.00 | 81 | 1021.5 |
| 20260506210538 | 59 | 75 | 0.0 | 4.3 | 0.00 | 0.00 | 0.00 | 80 | 1021.5 |
| 20260506210052 | 59 | 40 | 0.0 | 4.3 | 0.00 | 0.00 | 0.00 | 81 | 1021.6 |
| 20260506205537 | 59 | 41 | 0.0 | 4.3 | 0.00 | 0.00 | 0.00 | 80 | 1021.7 |
| 20260506205037 | 59 | 53 | 0.0 | 4.3 | 0.00 | 0.00 | 0.00 | 79 | 1021.6 |
| 20260506204555 | 59 | 0 | 0.0 | 4.3 | 0.00 | 0.00 | 0.00 | 79 | 1021.5 |
| 20260506204038 | 59 | 57 | 0.9 | 5.2 | 0.00 | 0.00 | 0.00 | 78 | 1021.7 |
| 20260506203537 | 60 | 0 | 0.0 | 5.2 | 0.00 | 0.00 | 0.00 | 79 | 1021.8 |
| 20260506203052 | 60 | 87 | 0.0 | 3.5 | 0.00 | 0.00 | 0.00 | 80 | 1021.7 |
| 20260506202537 | 60 | 0 | 0.9 | 2.6 | 0.00 | 0.00 | 0.00 | 77 | 1021.6 |
| 20260506202037 | 62 | 0 | 0.0 | 2.6 | 0.00 | 0.00 | 0.00 | 76 | 1021.6 |
| 20260506201550 | 62 | 0 | 0.0 | 2.6 | 0.00 | 0.00 | 0.00 | 78 | 1021.7 |
| 20260506201036 | 62 | 0 | 0.0 | 1.7 | 0.00 | 0.00 | 0.00 | 78 | 1021.4 |
| 20260506200536 | 61 | 0 | 0.0 | 0.9 | 0.00 | 0.00 | 0.00 | 79 | 1021.5 |
| 20260506200046 | 60 | 0 | 0.0 | 1.7 | 0.00 | 0.00 | 0.00 | 80 | 1021.6 |
| 20260506195537 | 59 | 186 | 0.0 | 1.7 | 0.00 | 0.00 | 0.00 | 80 | 1021.7 |
| 20260506195037 | 59 | 0 | 0.0 | 1.7 | 0.00 | 0.00 | 0.00 | 83 | 1021.6 |
| 20260506194551 | 58 | 0 | 0.0 | 2.6 | 0.00 | 0.00 | 0.00 | 83 | 1021.7 |
| 20260506194036 | 58 | 50 | 0.0 | 2.6 | 0.00 | 0.00 | 0.00 | 84 | 1021.7 |
| 20260506193537 | 57 | 0 | 0.0 | 2.6 | 0.00 | 0.00 | 0.00 | 83 | 1021.7 |
| 20260506193050 | 56 | 0 | 0.0 | 3.5 | 0.00 | 0.00 | 0.00 | 84 | 1021.7 |
| 20260506192537 | 56 | 51 | 0.9 | 3.5 | 0.00 | 0.00 | 0.00 | 84 | 1021.9 |
| 20260506192037 | 56 | 70 | 0.9 | 2.6 | 0.00 | 0.00 | 0.00 | 84 | 1022.0 |
| 20260506191558 | 56 | 79 | 0.0 | 0.9 | 0.00 | 0.00 | 0.00 | 85 | 1021.9 |
| 20260506191035 | 55 | 0 | 0.0 | 4.3 | 0.00 | 0.00 | 0.00 | 86 | 1021.9 |
| 20260506190535 | 54 | 0 | 0.9 | 4.3 | 0.00 | 0.00 | 0.00 | 86 | 1021.8 |
| 20260506190049 | 54 | 75 | 0.0 | 4.3 | 0.00 | 0.00 | 0.00 | 87 | 1021.8 |
| 20260506185534 | 54 | 72 | 0.9 | 3.5 | 0.00 | 0.00 | 0.00 | 86 | 1021.8 |
| 20260506185034 | 54 | 0 | 0.0 | 2.6 | 0.00 | 0.00 | 0.00 | 87 | 1022.0 |
| 20260506184547 | 54 | 0 | 0.0 | 2.6 | 0.00 | 0.00 | 0.00 | 86 | 1021.8 |
| 20260506184035 | 54 | 0 | 0.0 | 2.6 | 0.00 | 0.00 | 0.00 | 87 | 1021.8 |
| 20260506183535 | 54 | 0 | 0.0 | 2.6 | 0.00 | 0.00 | 0.00 | 86 | 1021.7 |
| 20260506183049 | 54 | 66 | 0.0 | 2.6 | 0.00 | 0.00 | 0.00 | 86 | 1021.7 |
| 20260506182535 | 54 | 0 | 0.0 | 1.7 | 0.00 | 0.00 | 0.00 | 85 | 1021.8 |
| 20260506182035 | 54 | 0 | 0.0 | 0.0 | 0.00 | 0.00 | 0.00 | 87 | 1021.8 |
| 20260506181550 | 54 | 0 | 0.0 | 0.9 | 0.00 | 0.00 | 0.00 | 87 | 1021.7 |
| 20260506181035 | 53 | 0 | 0.0 | 0.9 | 0.00 | 0.00 | 0.00 | 88 | 1021.6 |
| 20260506180538 | 53 | 0 | 0.0 | 0.9 | 0.00 | 0.00 | 0.00 | 86 | 1021.9 |
| 20260506180051 | 53 | 0 | 0.0 | 0.9 | 0.00 | 0.00 | 0.00 | 87 | 1021.7 |
| 20260506175537 | 53 | 0 | 0.0 | 0.9 | 0.00 | 0.00 | 0.00 | 88 | 1021.7 |
| 20260506175038 | 53 | 0 | 0.0 | 0.9 | 0.00 | 0.00 | 0.00 | 87 | 1021.7 |
| 20260506174557 | 53 | 0 | 0.0 | 0.9 | 0.00 | 0.00 | 0.00 | 87 | 1021.7 |
| 20260506174034 | 53 | 0 | 0.0 | 0.9 | 0.00 | 0.00 | 0.00 | 88 | 1021.8 |
| 20260506173533 | 53 | 0 | 0.0 | 2.6 | 0.00 | 0.00 | 0.00 | 88 | 1021.8 |
| 20260506173115 | 52 | 40 | 0.0 | 2.6 | 0.00 | 0.00 | 0.00 | 87 | 1021.5 |
| 20260506172536 | 53 | 58 | 0.0 | 1.7 | 0.00 | 0.00 | 0.00 | 87 | 1021.4 |
| 20260506172035 | 53 | 0 | 0.0 | 1.7 | 0.00 | 0.00 | 0.00 | 87 | 1021.4 |
| 20260506171549 | 53 | 0 | 0.0 | 1.7 | 0.00 | 0.00 | 0.00 | 88 | 1021.6 |
| 20260506171035 | 53 | 68 | 0.0 | 0.0 | 0.00 | 0.00 | 0.00 | 88 | 1021.5 |
| 20260506170534 | 53 | 0 | 0.0 | 0.9 | 0.00 | 0.00 | 0.00 | 88 | 1021.4 |
| 20260506170053 | 53 | 0 | 0.0 | 0.9 | 0.00 | 0.00 | 0.00 | 88 | 1021.3 |
| 20260506165535 | 53 | 0 | 0.0 | 0.9 | 0.00 | 0.00 | 0.00 | 88 | 1021.3 |
| 20260506165035 | 52 | 0 | 0.0 | 0.9 | 0.00 | 0.00 | 0.00 | 88 | 1021.3 |
| 20260506164550 | 52 | 0 | 0.0 | 1.7 | 0.00 | 0.00 | 0.00 | 89 | 1021.3 |
| 20260506164035 | 52 | 0 | 0.0 | 1.7 | 0.00 | 0.00 | 0.00 | 88 | 1021.3 |
| 20260506163535 | 53 | 0 | 0.0 | 0.9 | 0.00 | 0.00 | 0.00 | 89 | 1021.5 |
| 20260506163054 | 52 | 0 | 0.0 | 0.9 | 0.00 | 0.00 | 0.00 | 89 | 1021.5 |
| 20260506162535 | 52 | 0 | 0.0 | 0.0 | 0.00 | 0.00 | 0.00 | 89 | 1021.4 |
| 20260506162035 | 52 | 0 | 0.0 | 0.9 | 0.00 | 0.00 | 0.00 | 88 | 1021.6 |
| 20260506161553 | 52 | 0 | 0.0 | 0.9 | 0.00 | 0.00 | 0.00 | 88 | 1021.4 |
| 20260506161037 | 53 | 0 | 0.0 | 0.0 | 0.00 | 0.00 | 0.00 | 88 | 1021.5 |
| 20260506160534 | 53 | 0 | 0.0 | 0.0 | 0.00 | 0.00 | 0.00 | 88 | 1021.4 |
| 20260506160047 | 53 | 0 | 0.0 | 0.0 | 0.00 | 0.00 | 0.00 | 89 | 1021.0 |
| 20260506155534 | 53 | 0 | 0.0 | 0.0 | 0.00 | 0.01 | 0.00 | 89 | 1020.9 |
| 20260506155035 | 52 | 0 | 0.0 | 0.9 | 0.00 | 0.01 | 0.00 | 90 | 1021.0 |
| 20260506154600 | 52 | 0 | 0.0 | 0.9 | 0.00 | 0.01 | 0.00 | 90 | 1020.8 |
| 20260506154034 | 52 | 0 | 0.0 | 0.9 | 0.00 | 0.01 | 0.00 | 90 | 1020.6 |
| 20260506153535 | 52 | 0 | 0.0 | 0.9 | 0.00 | 0.01 | 0.00 | 90 | 1020.7 |
| 20260506153046 | 52 | 0 | 0.0 | 0.9 | 0.00 | 0.01 | 0.00 | 90 | 1020.6 |
| 20260506152534 | 51 | 73 | 0.0 | 0.0 | 0.00 | 0.01 | 0.00 | 91 | 1020.6 |
| 20260506152038 | 51 | 0 | 0.0 | 0.9 | 0.00 | 0.01 | 0.00 | 91 | 1020.7 |
| 20260506151547 | 51 | 0 | 0.0 | 2.6 | 0.00 | 0.01 | 0.00 | 91 | 1020.8 |
| 20260506151037 | 51 | 0 | 0.0 | 2.6 | 0.00 | 0.01 | 0.00 | 90 | 1021.0 |
| 20260506150535 | 51 | 62 | 0.0 | 2.6 | 0.00 | 0.01 | 0.00 | 90 | 1021.1 |
| 20260506150057 | 51 | 0 | 0.0 | 0.9 | 0.00 | 0.01 | 0.00 | 90 | 1021.3 |
| 20260506145535 | 51 | 0 | 0.0 | 0.9 | 0.00 | 0.02 | 0.00 | 90 | 1021.1 |
| 20260506145038 | 51 | 0 | 0.0 | 0.9 | 0.00 | 0.02 | 0.00 | 90 | 1021.2 |
| 20260506144603 | 51 | 0 | 0.0 | 1.7 | 0.00 | 0.02 | 0.00 | 90 | 1021.0 |
| 20260506144034 | 51 | 0 | 0.0 | 1.7 | 0.00 | 0.02 | 0.00 | 90 | 1021.0 |
| 20260506143535 | 51 | 0 | 0.0 | 1.7 | 0.00 | 0.02 | 0.00 | 90 | 1021.0 |
| 20260506143052 | 51 | 0 | 0.0 | 1.7 | 0.00 | 0.02 | 0.00 | 90 | 1020.7 |
| 20260506142534 | 51 | 0 | 0.0 | 1.7 | 0.00 | 0.02 | 0.00 | 90 | 1020.8 |
| 20260506142034 | 51 | 0 | 0.0 | 0.9 | 0.00 | 0.02 | 0.00 | 90 | 1020.9 |
| 20260506141546 | 51 | 0 | 0.0 | 2.6 | 0.00 | 0.02 | 0.00 | 91 | 1020.7 |
| 20260506141037 | 51 | 0 | 0.0 | 2.6 | 0.00 | 0.02 | 0.00 | 91 | 1020.4 |
| 20260506140537 | 51 | 75 | 0.0 | 2.6 | 0.00 | 0.02 | 0.00 | 90 | 1020.4 |
| 20260506140104 | 51 | 65 | 0.0 | 2.6 | 0.00 | 0.02 | 0.00 | 90 | 1020.2 |
| 20260506135535 | 51 | 0 | 0.0 | 2.6 | 0.00 | 0.02 | 0.00 | 90 | 1020.3 |
| 20260506135034 | 51 | 59 | 0.0 | 3.5 | 0.00 | 0.02 | 0.00 | 90 | 1020.3 |
| 20260506134547 | 51 | 59 | 0.0 | 3.5 | 0.00 | 0.02 | 0.00 | 90 | 1020.3 |
| 20260506134037 | 51 | 0 | 0.0 | 3.5 | 0.00 | 0.02 | 0.00 | 90 | 1020.2 |
| 20260506133535 | 51 | 67 | 0.0 | 1.7 | 0.00 | 0.02 | 0.00 | 90 | 1020.2 |
| 20260506133101 | 51 | 0 | 0.0 | 1.7 | 0.00 | 0.02 | 0.00 | 90 | 1020.2 |
| 20260506132533 | 52 | 60 | 0.0 | 1.7 | 0.00 | 0.02 | 0.00 | 90 | 1020.3 |
| 20260506132035 | 52 | 0 | 0.0 | 1.7 | 0.00 | 0.02 | 0.00 | 90 | 1020.2 |
| 20260506131547 | 52 | 0 | 0.0 | 3.5 | 0.00 | 0.02 | 0.00 | 90 | 1020.1 |
| 20260506131035 | 52 | 48 | 0.9 | 3.5 | 0.00 | 0.02 | 0.00 | 90 | 1020.2 |
| 20260506130535 | 52 | 0 | 0.0 | 2.6 | 0.00 | 0.02 | 0.00 | 90 | 1019.9 |
| 20260506130114 | 52 | 0 | 0.0 | 1.7 | 0.00 | 0.02 | 0.00 | 90 | 1019.8 |
| 20260506125535 | 52 | 0 | 0.0 | 1.7 | 0.00 | 0.02 | 0.00 | 90 | 1019.8 |
| 20260506125036 | 52 | 0 | 0.0 | 1.7 | 0.00 | 0.02 | 0.00 | 90 | 1019.8 |
| 20260506124552 | 52 | 0 | 0.0 | 1.7 | 0.00 | 0.02 | 0.00 | 90 | 1019.8 |
| 20260506124036 | 52 | 0 | 0.0 | 0.0 | 0.00 | 0.02 | 0.00 | 90 | 1019.8 |
| 20260506123536 | 52 | 0 | 0.0 | 0.0 | 0.00 | 0.02 | 0.00 | 90 | 1019.7 |
| 20260506123048 | 52 | 0 | 0.0 | 0.0 | 0.00 | 0.02 | 0.00 | 90 | 1019.6 |
| 20260506122536 | 52 | 0 | 0.0 | 0.0 | 0.00 | 0.02 | 0.00 | 90 | 1019.6 |
| 20260506122035 | 52 | 0 | 0.0 | 0.0 | 0.00 | 0.02 | 0.00 | 90 | 1019.7 |
| 20260506121553 | 52 | 0 | 0.0 | 0.0 | 0.00 | 0.02 | 0.00 | 90 | 1019.6 |
| 20260506121036 | 52 | 0 | 0.0 | 0.9 | 0.00 | 0.02 | 0.00 | 90 | 1019.7 |
| 20260506120536 | 52 | 0 | 0.0 | 0.9 | 0.00 | 0.02 | 0.00 | 89 | 1019.7 |
| 20260506120052 | 52 | 0 | 0.0 | 0.9 | 0.00 | 0.02 | 0.00 | 90 | 1019.6 |
| 20260506115536 | 52 | 0 | 0.0 | 3.5 | 0.00 | 0.02 | 0.00 | 89 | 1019.7 |
| 20260506115036 | 52 | 0 | 0.0 | 3.5 | 0.00 | 0.02 | 0.00 | 90 | 1019.7 |
| 20260506114547 | 52 | 0 | 0.0 | 2.6 | 0.00 | 0.02 | 0.00 | 89 | 1019.7 |
| 20260506114036 | 52 | 0 | 0.0 | 2.6 | 0.00 | 0.02 | 0.00 | 90 | 1019.6 |
| 20260506113536 | 52 | 49 | 0.0 | 2.6 | 0.00 | 0.02 | 0.00 | 89 | 1019.5 |
| 20260506113052 | 52 | 0 | 0.0 | 4.3 | 0.00 | 0.02 | 0.00 | 89 | 1019.5 |
| 20260506112537 | 52 | 69 | 0.9 | 4.3 | 0.00 | 0.02 | 0.00 | 89 | 1019.4 |
| 20260506112035 | 52 | 0 | 0.0 | 3.5 | 0.00 | 0.02 | 0.00 | 89 | 1019.5 |
| 20260506111548 | 52 | 0 | 0.0 | 0.9 | 0.00 | 0.02 | 0.00 | 89 | 1019.4 |
| 20260506111036 | 52 | 0 | 0.0 | 0.9 | 0.00 | 0.02 | 0.00 | 89 | 1019.4 |
| 20260506110536 | 52 | 0 | 0.0 | 1.7 | 0.00 | 0.02 | 0.00 | 89 | 1019.3 |
| 20260506110045 | 52 | 0 | 0.0 | 1.7 | 0.00 | 0.02 | 0.00 | 89 | 1019.2 |
| 20260506105537 | 52 | 0 | 0.0 | 0.9 | 0.00 | 0.02 | 0.00 | 89 | 1019.2 |
| 20260506105036 | 52 | 0 | 0.0 | 0.9 | 0.00 | 0.02 | 0.00 | 89 | 1019.1 |
| 20260506104553 | 52 | 0 | 0.0 | 2.6 | 0.00 | 0.02 | 0.00 | 89 | 1019.1 |
| 20260506104036 | 52 | 0 | 0.0 | 2.6 | 0.00 | 0.02 | 0.00 | 89 | 1019.0 |
| 20260506103537 | 52 | 0 | 0.0 | 0.0 | 0.00 | 0.02 | 0.00 | 89 | 1019.0 |
| 20260506103045 | 52 | 0 | 0.0 | 0.9 | 0.00 | 0.02 | 0.00 | 89 | 1018.9 |
| 20260506102537 | 52 | 0 | 0.0 | 0.9 | 0.00 | 0.02 | 0.00 | 89 | 1018.9 |
| 20260506102037 | 52 | 0 | 0.0 | 0.9 | 0.00 | 0.02 | 0.00 | 89 | 1018.8 |
| 20260506101550 | 52 | 0 | 0.0 | 0.9 | 0.00 | 0.02 | 0.00 | 88 | 1018.8 |
| 20260506101036 | 52 | 0 | 0.0 | 0.9 | 0.00 | 0.02 | 0.00 | 88 | 1018.7 |
| 20260506100536 | 52 | 0 | 0.0 | 0.9 | 0.00 | 0.02 | 0.00 | 89 | 1018.6 |
| 20260506100105 | 52 | 0 | 0.0 | 0.9 | 0.00 | 0.02 | 0.00 | 89 | 1018.5 |
| 20260506095536 | 52 | 0 | 0.0 | 0.9 | 0.00 | 0.02 | 0.00 | 89 | 1018.5 |
| 20260506095035 | 52 | 0 | 0.0 | 2.6 | 0.00 | 0.02 | 0.00 | 89 | 1018.4 |
| 20260506094600 | 53 | 0 | 0.0 | 2.6 | 0.00 | 0.02 | 0.00 | 89 | 1018.4 |
| 20260506094037 | 53 | 0 | 0.0 | 2.6 | 0.00 | 0.02 | 0.00 | 88 | 1018.4 |
| 20260506093536 | 53 | 0 | 0.0 | 0.9 | 0.00 | 0.02 | 0.00 | 88 | 1018.4 |
| 20260506093045 | 53 | 0 | 0.0 | 0.9 | 0.00 | 0.02 | 0.00 | 88 | 1018.3 |
| 20260506092537 | 53 | 0 | 0.0 | 0.9 | 0.00 | 0.02 | 0.00 | 88 | 1018.3 |
| 20260506092037 | 53 | 0 | 0.0 | 4.3 | 0.00 | 0.02 | 0.00 | 88 | 1018.4 |
| 20260506091547 | 53 | 0 | 0.9 | 4.3 | 0.00 | 0.02 | 0.00 | 88 | 1018.3 |
| 20260506091036 | 53 | 46 | 0.0 | 3.5 | 0.00 | 0.02 | 0.00 | 88 | 1018.3 |
| 20260506090536 | 53 | 51 | 0.0 | 2.6 | 0.00 | 0.02 | 0.00 | 88 | 1018.3 |
| 20260506090049 | 53 | 0 | 0.0 | 2.6 | 0.00 | 0.02 | 0.00 | 88 | 1018.3 |
| 20260506085537 | 53 | 39 | 0.0 | 2.6 | 0.00 | 0.02 | 0.00 | 88 | 1018.3 |
| 20260506085039 | 53 | 0 | 0.0 | 0.9 | 0.00 | 0.02 | 0.00 | 88 | 1018.3 |
| 20260506084553 | 53 | 52 | 0.0 | 0.9 | 0.00 | 0.02 | 0.00 | 88 | 1018.3 |
| 20260506084036 | 53 | 0 | 0.0 | 0.9 | 0.00 | 0.02 | 0.00 | 88 | 1018.3 |
| 20260506083536 | 53 | 0 | 0.0 | 0.9 | 0.00 | 0.02 | 0.00 | 87 | 1018.3 |
| 20260506083054 | 53 | 0 | 0.0 | 0.9 | 0.00 | 0.02 | 0.00 | 87 | 1018.3 |
| 20260506082537 | 53 | 0 | 0.0 | 0.9 | 0.00 | 0.02 | 0.00 | 87 | 1018.3 |
| 20260506082036 | 53 | 0 | 0.0 | 0.9 | 0.00 | 0.02 | 0.00 | 87 | 1018.3 |
| 20260506081602 | 54 | 0 | 0.0 | 0.9 | 0.00 | 0.02 | 0.00 | 87 | 1018.4 |
| 20260506081038 | 54 | 0 | 0.0 | 0.9 | 0.00 | 0.02 | 0.00 | 87 | 1018.3 |
| 20260506080536 | 54 | 0 | 0.0 | 0.9 | 0.00 | 0.02 | 0.00 | 87 | 1018.3 |
| 20260506073052 | 54 | 0 | 0.0 | 0.0 | 0.00 | 0.02 | 0.00 | 86 | 1018.0 |
| 20260506072539 | 54 | 0 | 0.0 | 0.0 | 0.00 | 0.02 | 0.00 | 86 | 1018.0 |
| 20260506072037 | 54 | 0 | 0.0 | 0.0 | 0.00 | 0.02 | 0.00 | 86 | 1018.1 |
| 20260506071550 | 55 | 0 | 0.0 | 0.0 | 0.00 | 0.02 | 0.00 | 86 | 1018.1 |
| 20260506071036 | 55 | 0 | 0.0 | 0.9 | 0.00 | 0.02 | 0.00 | 86 | 1018.1 |
| 20260506070537 | 55 | 0 | 0.0 | 0.9 | 0.00 | 0.02 | 0.00 | 86 | 1017.9 |
| 20260506062036 | 56 | 41 | 0.0 | 2.6 | 0.00 | 0.02 | 0.02 | 84 | 1017.8 |
| 20260506061546 | 56 | 0 | 0.0 | 1.7 | 0.00 | 0.02 | 0.02 | 84 | 1017.8 |
| 20260506061037 | 56 | 56 | 0.0 | 2.6 | 0.00 | 0.02 | 0.02 | 84 | 1017.7 |
| 20260506060537 | 56 | 0 | 0.9 | 2.6 | 0.00 | 0.02 | 0.02 | 83 | 1017.7 |